Location: Most
(50.5133°N, 13.6207°E)
Time: 10:51:37
(UTC+01:00)

Oscar 11 - Pass Details

Date: 27 November 2022
Orbit: 611 x 621 km, 97.6° (Epoch: 28 January)

Event Time Altitude Azimuth Distance (km) Brightness Sun altitude
Rises 16:37:48 0° 195° (SSW) 2,885 11.2 -5.0°
Reaches altitude 10° 16:40:15 10° 207° (SSW) 1,982 10.6 -5.4°
Maximum altitude 16:43:56 27° 266° (W) 1,186 9.5 -5.9°
Drops below altitude 10° 16:47:40 10° 325° (NW) 1,991 9.8 -6.4°
Sets 16:50:08 0° 338° (NNW) 2,900 10.5 -6.8°
